Simultaneous Nadir Overpasses (SNOs) Predictions

Prediction of SNOs between METOP-A and NOAA-19 Satellite Orbit:

Table of predicted SNOs for the next 14.0 days since TLE Epoch: 8/3/2012
<
Index Date (METOP-A) Time (METOP-A) METOP-A Lat,Lon Date (NOAA-19) Time (NOAA-19) NOAA-19 Lat,Lon Distance(km) Time Diff (sec)
1 08/03/2012 20:53:46 73.08,-140.84 08/03/2012 20:53:18 73.08,-140.75 2.79 28
2 08/03/2012 21:44:28 -73.07, 26.46 08/03/2012 21:44:19 -73.09, 26.47 2.59 9
3 08/03/2012 22:35:08 73.06,-166.22 08/03/2012 22:35:23 73.07,-166.25 1.64 15
4 08/03/2012 23:25:50 -73.05, 1.08 08/03/2012 23:26:23 -73.03, 1.08 1.70 33
5 08/04/2012 00:16:31 72.99, 168.29 08/04/2012 00:17:27 73.01, 168.35 3.22 56
6 08/04/2012 01:07:13 -72.98, -24.41 08/04/2012 01:08:27 -72.97, -24.32 3.04 74
7 08/13/2012 15:42:30 73.85, -61.33 08/13/2012 15:41:24 73.85, -64.48 97.25 66
8 08/13/2012 16:33:24 -73.24, 104.58 08/13/2012 16:32:10 -73.23, 104.23 11.39 74
9 08/13/2012 17:24:06 73.13, -88.32 08/13/2012 17:23:15 73.15, -88.37 2.50 51
10 08/13/2012 18:14:47 -73.12, 78.98 08/13/2012 18:14:12 -73.12, 78.95 1.09 35
11 08/13/2012 19:05:27 73.11,-113.70 08/13/2012 19:05:18 73.09,-113.76 2.83 9
12 08/13/2012 19:56:10 -73.05, 53.49 08/13/2012 19:56:16 -73.06, 53.56 2.92 6
13 08/13/2012 20:46:50 73.04,-139.20 08/13/2012 20:47:22 73.03,-139.15 1.75 32
14 08/13/2012 21:37:32 -73.03, 28.10 08/13/2012 21:38:20 -73.01, 28.16 2.96 48
15 08/13/2012 22:28:13 72.97,-164.69 08/13/2012 22:29:26 72.97,-164.54 4.77
